Regional Weather Roundup
Issued by NWS

Home | Current Version | Previous Version | Graphics & Text | Print | Product List | Glossary On
Versions: 1 2 3 4 5 6 7 8 9 10 11 12 13 14 15 16 17 18 19 20 21 22 23 24 25 26 27 28 29 30 31 32 33 34 35 36 37 38 39 40 41 42 43 44 45 46 47 48 49 50
000
ASUS43 KMPX 221610
RWRMN
WEATHER ROUNDUP FOR MINNESOTA
NATIONAL WEATHER SERVICE TWIN CITIES/CHANHASSEN MN
1100 AM CDT SAT JUL 22 2017


NOTE: "FAIR" INDICATES FEW OR NO CLOUDS BELOW 12,000 FEET WITH NO
SIGNIFICANT WEATHER AND/OR OBSTRUCTIONS TO VISIBILITY. N/A MEANS
CURRENT SKY AND/OR WEATHER CONDITIONS ARE NOT AVAILABLE.

MNZ060>063-068>070-221700-
   Twin Cities Metro

CITY           SKY/WX    TMP DP  RH WIND       PRES   REMARKS
TWIN CITIES    MOSUNNY   81  68  64 S7        29.82F
ST PAUL        SUNNY     81  70  69 SE6       29.81F
CRYSTAL        SUNNY     82  65  56 VRB3      29.80F
BLAINE         MOSUNNY   82  66  57 SW3       29.81F
LAKEVILLE      SUNNY     79  68  69 CALM      29.84F
EDEN PRAIRIE   SUNNY     80  69  69 S7        29.82F
SOUTH ST PAUL  SUNNY     81  66  61 S5        29.82F
LAKE ELMO      FAIR      79  70  73 SW5       29.83F
$$
MNZ001>005-007-008-013>017-022>024-027-028-221700-
   Northwest Minnesota

CITY           SKY/WX    TMP DP  RH WIND       PRES   REMARKS
BEMIDJI        SUNNY     75  64  68 W12       29.83S
HALLOCK        SUNNY     73  63  68 NW17G26   29.80R
ROSEAU         SUNNY     75  64  69 W16G23    29.79R
WARROAD        SUNNY     75  68  78 W14       29.78R
THIEF RVR FALL MOSUNNY   76  64  66 W16       29.83S
CROOKSTON      SUNNY     79  64  61 NW15G22   29.83S
FOSSTON        SUNNY     73  66  78 W10       29.84R
DETROIT LAKES  SUNNY     77  64  65 W13       29.88R
MOORHEAD       SUNNY     77  66  69 W10       29.87S
PARK RAPIDS    SUNNY     80  65  59 W16G25    29.83S
MAHNOMEN       FAIR      74  66  77 W18G26    29.84S
$$
MNZ006-009>011-018-025>026-221700-
   North Central Minnesota

CITY           SKY/WX    TMP DP  RH WIND       PRES   REMARKS
BAUDETTE       PTSUNNY   71  66  84 S8        29.78F
FLAG ISLAND    CLOUDY    70  64  83 S5        29.76S FOG
INTL FALLS     CLOUDY    69  62  78 CALM      29.79F
WASKISH        PTSUNNY   72  70  94 SW12G17   29.80
BIG FORK       SUNNY     73  66  78 SW6       29.81F
LONGVILLE      SUNNY     75  66  73 W5        29.82R
GRAND RAPIDS   SUNNY     74  66  76 N6        29.83S
CRANE LAKE     CLOUDY    66  63  88 S5        29.83S
ORR            CLOUDY    66  61  82 S6        29.79F
COOK           CLOUDY    66  63  88 CALM      29.82F
WALKER         FAIR      76  63  63 W9G17     29.82S
$$
MNZ012-019>021-037-221700-
   Northeast Minnesota

CITY           SKY/WX    TMP DP  RH WIND       PRES   REMARKS
DULUTH         CLOUDY    65  63  93 E3        29.83F
ELY            MOSUNNY   66  57  72 CALM      29.83S
HIBBING        CLOUDY    66  65  96 CALM      29.82F
EVELETH        CLOUDY    65  59  79 CALM      29.84S
DULUTH HARBOR  CLOUDY    64  61  88 NE8       29.83S
TWO HARBORS    CLOUDY    68  63  83 SE3       29.81F
SILVER BAY     CLOUDY    66  57  72 E8        29.83R
GRAND MARAIS     N/A     59  53  80 NE7       29.84R
G MARAIS ARPRT CLOUDY    63  54  72 NE5       29.87R
$$
MNZ029>031-032-039>041-046>048-054>057-064-221700-
   West Central Minnesota

CITY           SKY/WX    TMP DP  RH WIND       PRES   REMARKS
FERGUS FALLS   SUNNY     75  70  83 W10       29.87R
WHEATON        SUNNY     75  68  78 SW13      29.89S
MORRIS         SUNNY     81  66  61 W10       29.86S
ALEXANDRIA     SUNNY     77  69  76 W12       29.88R
ELBOW LAKE     FAIR      76  69  81 SW12      29.88R
WADENA         SUNNY     77  64  65 W10G16    29.85R
GLENWOOD       SUNNY     79  68  69 W9        29.87S
APPLETON       MOSUNNY   81  68  65 W7        29.86S
BENSON         MOSUNNY   81  64  57 SW5       29.87S
ORTONVILLE     MOSUNNY   79  68  69 W6        29.88S
MADISON        MOSUNNY   81  70  69 W3        29.87F
WILLMAR        FAIR      81  70  69 SW5       29.87R
$$
MNZ033>034-036-042>043-049>051-058-059-221700-
   Central Minnesota

CITY           SKY/WX    TMP DP  RH WIND       PRES   REMARKS
ST CLOUD       SUNNY     79  69  71 W7        29.83R
SAUK CENTRE    FAIR      78  68  70 W10       29.86R
PAYNESVILLE    MOSUNNY   80  67  64 SW3       29.86R
AITKIN         MOSUNNY   73  66  78 CALM      29.82R
PINE RIVER     SUNNY     75  66  73 W3        29.86R
BRAINERD       SUNNY     77  66  68 W5        29.83R
STAPLES        SUNNY     79  66  65 W13       29.84R
LONG PRAIRIE   FAIR      77  68  73 S7        29.86R
LITTLE FALLS   SUNNY     75  64  69 W8        29.84S
LITCHFIELD     MOSUNNY   81  72  74 W5        29.86R
BUFFALO        SUNNY     80  66  61 S5        29.84R
MAPLE LAKE     SUNNY     82  70  68 SW3       29.85R
HUTCHINSON     SUNNY     80  72  75 SW5       29.86R
$$
MNZ037-044-045-052-053-221700-
   East Central Minnesota

CITY           SKY/WX    TMP DP  RH WIND       PRES   REMARKS
PRINCETON      SUNNY     81  70  69 SW5       29.83R
MORA           MOSUNNY   73  64  73 CALM      29.85R
CAMBRIDGE      SUNNY     81  66  61 W3        29.81R
RUSH CITY      MOSUNNY   77  69  76 CALM      29.83R
MOOSE LAKE     CLOUDY    72  64  78 SW8       29.81R
HINCKLEY       FAIR      73  68  83 CALM      29.83S
CLOQUET        CLOUDY    68  63  83 N7        29.82S
MCGREGOR       SUNNY     75  66  73 CALM      29.83R
$$
MNZ071>073-080-081-089-090-097-098-221700-
   Southwest Minnesota

CITY           SKY/WX    TMP DP  RH WIND       PRES   REMARKS
MONTEVIDEO     MOSUNNY   86  81  84 NW7       29.86S HX 102
GRANITE FALLS  SUNNY     82  71  69 W6        29.88S
CANBY          MOSUNNY   80  69  70 CALM      29.89F
MARSHALL       SUNNY     78  70  76 NW8       29.87F
REDWOOD FALLS  SUNNY     82  68  62 NW9       29.85F
OLIVIA         SUNNY     81  68  65 W6        29.85S
PIPESTONE      SUNNY     79  66  65 NW8       29.92S
WINDOM         SUNNY     79  70  73 W6        29.89S
WORTHINGTON    MOSUNNY   77  70  79 NW8       29.91S
JACKSON        PTSUNNY   77  70  78 NW10      29.90S
SLAYTON        MOSUNNY   76  67  74 NW6       29.92S
$$
MNZ065>067-074>077-082>085-091>093-221700-
   South Central Minnesota

CITY           SKY/WX    TMP DP  RH WIND       PRES   REMARKS
MANKATO        MOSUNNY   77  70  78 E7        29.86F
NEW ULM        SUNNY     79  68  69 CALM      29.85F
ST JAMES       PTSUNNY   79  70  73 N6        29.88F
FAIRMONT       CLOUDY    77  72  84 N8        29.88S
GLENCOE        SUNNY     79  73  80 S6        29.83F
FARIBAULT      SUNNY     79  70  73 N3        29.86F
OWATONNA       MOSUNNY   77  70  78 NE5       29.86F
WASECA         MOSUNNY   77  70  78 NE3       29.88F
ALBERT LEA     CLOUDY    72  70  94 N8        29.88S FOG
$$
MNZ078>079-086>088-094>096-221700-
   Southeast Minnesota

CITY           SKY/WX    TMP DP  RH WIND       PRES   REMARKS
ROCHESTER      CLOUDY    72  70  93 N7        29.89F
RED WING       SUNNY     81  64  57 CALM      29.83F
STANTON        SUNNY     79  68  68 NE3       29.84F
DODGE CENTER   PTSUNNY   73  70  88 N7        29.89S
WINONA         CLOUDY    73  70  88 CALM      29.87R
AUSTIN         CLOUDY    72  70  94 NE9       29.89R
PRESTON        CLOUDY    69  68  96 N7        29.89S FOG
$$
ABBREVIATIONS USED IN REMARKS
   TC - TEMPERATURES IN CELSIUS
  WCI - WIND CHILL INDEX
   HX - HEAT INDEX
  VSB - VISIBILITY
$$




USA.gov is the U.S. government's official web portal to all federal, state and local government web resources and services.